[[{"header":{"parameterUnit":"m.s-1","parameterCategory":1,"la1":30.2991,"la2":30.254,"lo1":-89.0895,"lo2":-89.0444,"dy":0.0017,"dx":0.0017,"nx":28,"ny":28,"refTime":"2025-06-03T03:00:00:Z","depth":0,"parameterNumber":2,"parameterNumberName":"U-component_of_WINDS"},"data":[0,0,0,0,0,0,0,0,0,0,0,0,0,0,0,0,0,0,0,0,0,0,0,0,0,0,0,0,0,0,0,0,0,0,0,0,0,0,0,0,0,0,0,0,0,0,0,0,0,0,0,0,0,0,0,0,0,0,-1.3525,-1.3524,0,-1.3463,-1.3463,-1.3462,-1.3389,-1.3388,-1.3387,-1.3386,-1.3322,-1.3321,-1.332,0,0,0,0,0,0,0,0,0,0,0,0,0,-1.358,-1.3579,-1.3525,-1.3524,-1.3523,-1.3463,-1.3463,-1.3462,-1.3389,-1.3388,-1.3386,-1.3385,-1.3322,-1.3321,-1.332,0,0,0,0,0,0,0,0,0,0,0,0,0,-1.3541,-1.3579,-1.3525,-1.348,-1.3475,-1.3464,-1.3463,-1.3461,-1.3389,-1.3388,-1.3386,-1.3384,-1.3322,-1.3321,-1.332,-1.3348,0,0,-1.3317,-1.3317,0,0,0,0,0,0,0,0,-1.3543,-1.3539,-1.3487,-1.3483,-1.3478,-1.3432,-1.3458,-1.3423,-1.339,-1.3422,-1.3386,-1.3384,-1.336,-1.3355,-1.3348,-1.3345,-1.3342,-1.3317,-1.3316,-1.3316,-1.3316,0,0,0,0,0,0,0,-1.3546,-1.3541,-1.35,-1.3487,-1.3481,-1.3463,-1.3455,-1.3451,-1.3401,-1.3419,-1.3414,-1.3407,-1.3357,-1.3349,-1.3345,-1.3341,-1.3317,-1.3316,-1.3315,-1.3315,-1.336,-1.3361,0,0,0,0,0,0,-1.3555,-1.3544,-1.3502,-1.3498,-1.3507,-1.3463,-1.3455,-1.3448,-1.3401,-1.3392,-1.3409,-1.3404,-1.3351,-1.3347,-1.3343,-1.3373,-1.3316,-1.3315,-1.3314,-1.3358,-1.336,-1.3362,0,0,0,0,0,0,-1.3557,-1.3552,-1.3505,-1.352,-1.3512,-1.3464,-1.3457,-1.3448,-1.344,-1.3393,-1.3384,-1.341,-1.335,-1.3344,-1.3348,-1.337,-1.3315,-1.3314,-1.3356,-1.3358,-1.3361,-1.3433,0,0,0,0,0,0,-1.3559,-1.3553,-1.3563,-1.352,-1.3512,-1.351,-1.3459,-1.3448,-1.3439,-1.3432,-1.3392,-1.3383,-1.3348,-1.3349,-1.3347,-1.3367,-1.3313,-1.3353,-1.3357,-1.336,-1.3429,-1.3438,-1.3446,0,0,0,0,0,-1.3561,-1.3585,-1.3564,-1.3559,-1.3523,-1.3512,-1.3507,-1.3466,-1.3441,-1.345,-1.3421,-1.3385,-1.3368,-1.335,-1.3346,-1.3367,-1.3352,-1.3356,-1.336,-1.3425,-1.3436,-1.3446,0,0,0,0,0,0,-1.363,-1.3579,-1.3554,-1.3565,-1.3544,-1.3499,-1.351,-1.3479,-1.3464,-1.3458,-1.3408,-1.3399,-1.3409,-1.3388,-1.337,-1.3393,-1.3355,-1.3358,-1.3405,-1.3416,-1.3425,-1.3429,-1.3312,0,0,0,0,0,-1.3647,-1.3643,-1.3597,-1.3612,-1.3602,-1.3559,-1.3552,-1.3523,-1.3498,-1.3488,-1.3458,-1.3436,-1.3425,-1.342,-1.3407,-1.3426,-1.3416,-1.3438,-1.3447,-1.3455,-1.3458,-1.3468,-1.3477,-1.3375,-1.3375,-1.3375,0,0,-1.3681,-1.3653,-1.3652,-1.3625,-1.3605,-1.3601,-1.3551,-1.3549,-1.3546,-1.3488,-1.3489,-1.3467,-1.3438,-1.345,-1.3453,-1.3433,-1.3485,-1.346,-1.3466,-1.3465,-1.3473,-1.3482,-1.3491,-1.3378,-1.3377,-1.3377,0,0,-1.3742,-1.372,-1.373,-1.3711,-1.3681,-1.3652,-1.3655,-1.3616,-1.3599,-1.36,-1.3557,-1.3553,-1.3536,-1.3518,-1.3507,-1.3564,-1.3531,-1.3561,-1.3607,-1.3617,-1.3625,-1.3632,-1.3653,-1.3661,-1.3565,-1.3565,-1.3565,0,-1.3788,-1.3781,-1.3739,-1.374,-1.373,-1.3678,-1.3688,-1.3672,-1.364,-1.3634,-1.3613,-1.3592,-1.3569,-1.3576,-1.359,-1.3582,-1.3584,-1.3565,-1.3627,-1.3634,-1.3639,-1.3659,-1.3667,-1.3569,-1.3569,-1.3568,-1.3568,0,-1.384,-1.3837,-1.3848,-1.382,-1.3811,-1.3817,-1.3775,-1.3772,-1.3744,-1.3718,-1.3721,-1.3692,-1.3674,-1.3673,-1.3645,-1.3677,-1.3666,-1.3636,-1.3597,-1.3654,-1.3672,-1.3679,-1.3575,-1.3573,-1.3572,-1.3571,0,0,-1.3941,-1.3891,-1.3896,-1.3883,-1.3848,-1.3844,-1.3849,-1.3832,-1.383,-1.381,-1.3813,-1.3801,-1.3775,-1.3762,-1.3732,-1.3741,-1.379,-1.3711,-1.3709,-1.3727,-1.3824,-1.3847,-1.3856,-1.3768,-1.3769,-1.377,-1.3827,0,-1.3996,-1.4,-1.3963,-1.3978,-1.3974,-1.3926,-1.393,-1.391,-1.3886,-1.388,-1.3853,-1.3846,-1.3811,-1.3804,-1.381,-1.3783,-1.3809,-1.3778,-1.377,-1.3771,-1.3779,-1.3865,-1.3888,-1.3943,-1.3833,-1.3834,-1.3835,0,-1.4059,-1.4045,-1.4059,-1.4025,-1.4022,-1.4027,-1.4009,-1.4004,-1.398,-1.3962,-1.395,-1.3916,-1.3919,-1.3883,-1.3886,-1.3866,-1.3861,-1.3848,-1.3849,-1.3846,-1.3806,-1.3865,-1.3959,-1.3968,-1.3846,-1.3845,-1.3844,0,-1.4133,-1.4116,-1.4123,-1.4114,-1.4074,-1.4078,-1.4062,-1.4036,-1.4029,-1.4014,-1.401,-1.3995,-1.3987,-1.3977,-1.3941,-1.3918,-1.3949,-1.3909,-1.3935,-1.3936,-1.3943,-1.3943,-1.4038,-1.394,-1.394,-1.394,-1.394,0,-1.4197,-1.4209,-1.4156,-1.416,-1.4172,-1.413,-1.4142,-1.4121,-1.4099,-1.4099,-1.4057,-1.4058,-1.401,-1.4006,-1.3978,-1.3986,-1.3982,-1.3968,-1.3961,-1.3972,-1.3974,-1.3968,-1.3963,-1.3942,-1.3942,-1.3941,-1.3941,0,-1.4281,-1.4246,-1.4251,-1.4213,-1.4204,-1.4215,-1.4183,-1.4186,-1.416,-1.4161,-1.4158,-1.4119,-1.4112,-1.4075,-1.4059,-1.4041,-1.4059,-1.4043,-1.4067,-1.4062,-1.409,-1.4088,-1.4184,-1.4195,-1.409,-1.4091,-1.4092,0,-1.4324,-1.4332,-1.4296,-1.4293,-1.4279,-1.4275,-1.4268,-1.4227,-1.4222,-1.4197,-1.4203,-1.4193,-1.4183,-1.4174,-1.4144,-1.4132,-1.4117,-1.4151,-1.4114,-1.4126,-1.4118,-1.4118,-1.4119,-1.4159,-1.416,-1.4161,-1.4162,0,-1.4406,-1.4389,-1.438,-1.4367,-1.436,-1.4347,-1.4332,-1.4332,-1.4287,-1.4284,-1.4277,-1.4269,-1.4254,-1.4245,-1.4229,-1.4212,-1.418,-1.4174,-1.418,-1.4191,-1.4205,-1.4199,-1.4089,-1.4172,-1.4171,-1.417,-1.417,-1.4169,-1.4471,-1.4476,-1.4452,-1.4445,-1.4429,-1.4417,-1.4418,-1.4393,-1.4387,-1.4372,-1.4348,-1.4345,-1.4323,-1.4298,-1.4284,-1.4281,-1.4263,-1.427,-1.4272,-1.4275,-1.4281,-1.4206,-1.4278,-1.4278,-1.4277,-1.4277,-1.4277,0,-1.4551,-1.4533,-1.4527,-1.4508,-1.4503,-1.4474,-1.4456,-1.4454,-1.4451,-1.4433,-1.4425,-1.4418,-1.4409,-1.438,-1.4368,-1.4372,-1.4357,-1.437,-1.437,-1.4367,-1.4298,-1.4295,-1.4383,-1.4383,-1.4383,-1.4383,-1.4383,-1.4383,-1.4591,-1.4599,-1.458,-1.458,-1.4562,-1.4559,-1.4552,-1.454,-1.4526,-1.452,-1.4513,-1.4494,-1.4472,-1.4459,-1.445,-1.4442,-1.444,-1.4458,-1.4445,-1.4381,-1.4371,-1.4361,-1.4358,-1.4458,-1.4458,-1.4514,-1.4514,-1.4515]},{"header":{"parameterUnit":"m.s-1","parameterCategory":1,"la1":30.2991,"la2":30.254,"lo1":-89.0895,"lo2":-89.0444,"dy":0.0017,"dx":0.0017,"nx":28,"ny":28,"refTime":"2025-06-03T03:00:00:Z","depth":0,"parameterNumber":3,"parameterNumberName":"V-component_of_WINDS"},"data":[0,0,0,0,0,0,0,0,0,0,0,0,0,0,0,0,0,0,0,0,0,0,0,0,0,0,0,0,0,0,0,0,0,0,0,0,0,0,0,0,0,0,0,0,0,0,0,0,0,0,0,0,0,0,0,0,0,0,3.6732,3.6732,0,3.6716,3.6716,3.6715,3.6741,3.6742,3.6743,3.6744,3.6722,3.672,3.6719,0,0,0,0,0,0,0,0,0,0,0,0,0,3.6781,3.678,3.6732,3.6732,3.6732,3.6716,3.6716,3.6715,3.6741,3.6742,3.6743,3.6744,3.6722,3.672,3.6719,0,0,0,0,0,0,0,0,0,0,0,0,0,3.6761,3.6779,3.6732,3.6743,3.6743,3.6716,3.6716,3.6715,3.6741,3.6742,3.6744,3.6745,3.6723,3.6721,3.6718,3.6678,0,0,3.6712,3.6711,0,0,0,0,0,0,0,0,3.6762,3.6759,3.6741,3.6742,3.6743,3.6732,3.6725,3.6703,3.674,3.6742,3.6744,3.6745,3.6724,3.6721,3.6715,3.6677,3.6676,3.6712,3.671,3.6709,3.6709,0,0,0,0,0,0,0,3.6764,3.676,3.6725,3.6741,3.6742,3.6747,3.6745,3.6721,3.6725,3.6742,3.6743,3.6742,3.6724,3.6717,3.6715,3.6676,3.6712,3.671,3.6708,3.6708,3.6604,3.6602,0,0,0,0,0,0,3.6764,3.6761,3.6726,3.6725,3.6756,3.6745,3.6743,3.6734,3.6725,3.6725,3.674,3.6743,3.672,3.6717,3.6714,3.6666,3.6709,3.6707,3.6706,3.6605,3.6603,3.6602,0,0,0,0,0,0,3.6765,3.6761,3.6727,3.6744,3.674,3.6743,3.6732,3.6733,3.6726,3.6725,3.6725,3.6733,3.6721,3.6717,3.6687,3.6666,3.6706,3.6705,3.6607,3.6605,3.6603,3.657,0,0,0,0,0,0,3.6767,3.6761,3.6747,3.6743,3.6739,3.6701,3.673,3.6732,3.6723,3.6726,3.6717,3.6717,3.6722,3.669,3.6685,3.6664,3.6703,3.6609,3.6606,3.6603,3.6573,3.6567,3.6562,0,0,0,0,0,3.6768,3.6737,3.6746,3.6741,3.6721,3.67,3.6697,3.6705,3.6721,3.6706,3.6705,3.6718,3.667,3.6687,3.6681,3.6659,3.661,3.6607,3.6604,3.6576,3.6568,3.6562,0,0,0,0,0,0,3.6735,3.6736,3.6746,3.6713,3.6707,3.6704,3.6685,3.6697,3.6683,3.6686,3.6695,3.6693,3.6661,3.6657,3.6677,3.662,3.6642,3.6638,3.6623,3.6616,3.6611,3.6612,3.6701,0,0,0,0,0,3.6725,3.6709,3.671,3.6681,3.6677,3.6682,3.6673,3.668,3.6672,3.6669,3.6666,3.6657,3.664,3.6628,3.6612,3.6574,3.6572,3.6555,3.655,3.6545,3.654,3.652,3.6512,3.6591,3.6591,3.6591,0,0,3.6701,3.67,3.6689,3.6674,3.667,3.6652,3.6679,3.6659,3.6645,3.6665,3.6637,3.6635,3.6625,3.6591,3.6575,3.6587,3.6519,3.6541,3.6537,3.6535,3.6516,3.6508,3.6502,3.6589,3.6589,3.659,0,0,3.665,3.6648,3.6624,3.6619,3.6613,3.6617,3.6611,3.6607,3.6607,3.658,3.6595,3.6578,3.6548,3.6541,3.6533,3.6482,3.6492,3.6476,3.6446,3.6426,3.642,3.6414,3.6395,3.6388,3.6472,3.6472,3.6472,0,3.6621,3.6597,3.6609,3.6588,3.6581,3.6601,3.6575,3.657,3.6558,3.6552,3.6565,3.653,3.6524,3.6489,3.6476,3.647,3.6462,3.6476,3.642,3.6415,3.641,3.6391,3.6384,3.647,3.647,3.647,3.647,0,3.6562,3.6545,3.6525,3.6516,3.6507,3.6483,3.6491,3.648,3.6488,3.649,3.6461,3.6456,3.644,3.6433,3.6439,3.6398,3.6405,3.6419,3.6442,3.64,3.6383,3.6376,3.6467,3.6468,3.6468,3.6469,0,0,3.6487,3.6487,3.6479,3.6475,3.6471,3.6457,3.6435,3.6421,3.6411,3.6403,3.6384,3.6359,3.6373,3.6364,3.6371,3.6353,3.6312,3.6369,3.6369,3.6358,3.6265,3.6254,3.6246,3.632,3.6318,3.6317,3.6266,0,3.6436,3.64,3.6411,3.6373,3.6357,3.6377,3.6357,3.6352,3.6353,3.6339,3.634,3.6323,3.6342,3.6337,3.6321,3.632,3.6293,3.6324,3.63,3.6299,3.6301,3.6237,3.6225,3.6176,3.6259,3.6258,3.6257,0,3.6371,3.6362,3.6324,3.6323,3.6317,3.63,3.6288,3.6275,3.6269,3.6271,3.6263,3.6273,3.625,3.6274,3.6242,3.6263,3.6254,3.6253,3.6251,3.6248,3.6275,3.6231,3.6161,3.6153,3.6247,3.6248,3.6249,0,3.6319,3.6298,3.6273,3.6269,3.6268,3.6255,3.6254,3.6249,3.6241,3.623,3.6225,3.6211,3.6203,3.6192,3.6198,3.6216,3.6165,3.619,3.6165,3.6164,3.6152,3.6152,3.6078,3.6148,3.6148,3.6148,3.6148,0,3.626,3.6236,3.625,3.6234,3.6207,3.622,3.6193,3.6193,3.619,3.6173,3.6189,3.6173,3.6183,3.6167,3.6171,3.6144,3.614,3.614,3.6142,3.6138,3.6138,3.6132,3.6135,3.6146,3.6147,3.6147,3.6147,0,3.6198,3.6206,3.618,3.6182,3.6182,3.6162,3.6163,3.6147,3.6151,3.613,3.6126,3.6131,3.6114,3.612,3.61,3.6103,3.6068,3.6074,3.6071,3.6072,3.6046,3.6048,3.5964,3.5954,3.6031,3.603,3.603,0,3.6159,3.6141,3.6142,3.6133,3.6131,3.6117,3.6109,3.612,3.6111,3.6104,3.6089,3.6074,3.6062,3.6033,3.6034,3.602,3.6025,3.5997,3.6022,3.602,3.6023,3.6024,3.6022,3.5991,3.599,3.5989,3.5988,0,3.6089,3.6094,3.6083,3.6074,3.6065,3.6057,3.6051,3.6042,3.6054,3.6043,3.6026,3.6018,3.5999,3.5983,3.5971,3.5967,3.5979,3.5981,3.5974,3.597,3.5968,3.5968,3.6055,3.5982,3.5983,3.5983,3.5983,3.5984,3.6036,3.6021,3.602,3.6007,3.6005,3.5999,3.5985,3.5988,3.5975,3.5963,3.597,3.5951,3.5946,3.593,3.5926,3.591,3.5921,3.5911,3.5909,3.5906,3.5902,3.5972,3.5908,3.5908,3.5908,3.5908,3.5908,0,3.5966,3.5967,3.5955,3.5948,3.5937,3.5953,3.5947,3.5937,3.592,3.5916,3.5905,3.5886,3.5871,3.5872,3.5858,3.5845,3.585,3.5841,3.5841,3.584,3.5894,3.5901,3.5837,3.5837,3.5837,3.5837,3.5837,3.5837,3.5929,3.5905,3.5911,3.5885,3.5886,3.5869,3.5864,3.5859,3.5855,3.5834,3.5823,3.5824,3.5821,3.5808,3.5794,3.5795,3.5788,3.5777,3.5779,3.5829,3.5836,3.5843,3.5849,3.5776,3.5776,3.5727,3.5726,3.5726]}]]